Regional Weather Roundup
Issued by NWS Lake Charles, LA

Home | Current Version | Previous Version | Text Only | Print | Product List | Glossary On
Versions: 1 2 3 4 5 6 7 8 9 10 11 12 13 14 15 16 17 18 19 20 21 22 23 24 25 26 27 28 29 30 31 32 33 34 35 36 37 38 39 40 41 42 43 44 45
000
ASUS44 KLCH 201110
RWRLCH
RWRLCH
REGIONAL WEATHER ROUNDUP
NATIONAL WEATHER SERVICE LAKE CHARLES LA
500 AM CST SAT DEC 20 2014

Note: "fair" indicates few or no clouds below 12,000 feet with no
significant weather and/or obstructions to visibility.


ACROSS SOUTHEAST TEXAS

CITY           SKY/WX    TMP DP  RH WIND       PRES   REMARKS
BEAUMONT       CLOUDY    50  48  93 N13       30.12S
BEAUMONT CITY  CLOUDY    49  48  97 N10       30.14R
ORANGE         CLOUDY    49  48  97 N9        30.14S
JASPER         CLOUDY    47  46  96 N5        30.17S
$$

ACROSS CENTRAL LOUISIANA

CITY           SKY/WX    TMP DP  RH WIND       PRES   REMARKS
LEESVILLE      CLOUDY    47  46  97 N7        30.14R
FULLERTON      CLOUDY    49  45  86 VRB5      30.12S
ALEXANDRIA INT LGT RAIN  47  45  93 N8        30.15R
ESLER FIELD    CLOUDY    46  45  96 VRB3      30.16R
DERIDDER       CLOUDY    47  46  96 N5        30.15F
OAKDALE        CLOUDY    48  46  93 NE8       30.14S
OPELOUSAS      CLOUDY    47  46  95 N10       30.12R
$$

ACROSS SOUTHWEST AND SOUTH CENTRAL LOUISIANA

CITY           SKY/WX    TMP DP  RH WIND       PRES   REMARKS
SULPHUR        CLOUDY    50  49  95 N8        30.13R
LAKE CHARLES   CLOUDY    49  47  93 MISG      30.12R
CHENNAULT INT  NOT AVBL
CAMERON PHI    CLOUDY    50  48  93 NE16      30.14S
DEQUINCY       CLOUDY    47  47 100 N7        30.13F
JENNINGS       CLOUDY    48  46  95 NE10      30.12S
LAFAYETTE      CLOUDY    48  47  96 N13       30.12R FOG
NEW IBERIA     CLOUDY    50  48  93 N14       30.11R
ABBEVILLE      CLOUDY    47  47  98 N9G16     30.11R
PATTERSON      CLOUDY    50  48  93 NE13      30.08S
SALT POINT       N/A     53  49  86 VRB6      30.06R
$$

SELECTED SITES ACROSS THE REGION

CITY           SKY/WX    TMP DP  RH WIND       PRES   REMARKS
HOUSTON BUSH   CLOUDY    51  48  89 N13       30.14S
HOUSTON HOBBY  CLOUDY    52  50  93 N10       30.13R
GALVESTON      LGT RAIN  53  52  96 N17       30.13R
COLLEGE STAT   CLOUDY    49  47  93 N9        30.18R
CONROE         CLOUDY    49  47  93 N7        30.15F
HUNTSVILLE     CLOUDY    49  47  93 VRB3      30.16S
LUFKIN         CLOUDY    50  46  86 N3        30.17R
SHREVEPORT     CLOUDY    45  43  93 N8        30.19S
MONROE         CLEAR     39  39 100 NE3       30.20R FOG
NATCHEZ MS     CLOUDY    45  43  93 N7        30.15S
BATON ROUGE    CLOUDY    48  45  89 N8        30.11R
N.O. INTL ARPT CLOUDY    50  47  89 NE17      30.09R FOG
SLIDELL        CLOUDY    48  46  93 NE10      30.09R
$$

MARINE REPORTS

STATION/POSITION TIME  TEMP    WIND        PRES    VSBY  WAVE
                       AIR SEA DIR/SP/G                  HT/PER
                 (UTC) (F)     (DEG/KT/KT) (MB)    (MI)  (FT/S)
BUOY 30 S HIGH I 1100   53 64   20/ 16/ 17 1019.1R         4/ 6
SEA RIM ST PARK  1100   50      20/ 10/ 13 1020.5R
PORT ARTHUR      1100      61   10/  8/ 10 1020.1R
SABINE PASS N    1100   50 60   30/ 12/ 15 1019.8R
TEXAS POINT      NOT AVBL
CALCASIEU PASS   1100   50 60   50/ 11/ 15   N/A
LK CHARLES BEACH 1100   49 60              1020.1R
MARSH ISLAND     NOT AVBL
FRESH WATER LOCK 1100   49 60  360/ 14/ 19 1018.6R
AMERADA PASS     1100   51 51   20/  8/ 13 1017.9R
$$



USA.gov is the U.S. government's official web portal to all federal, state and local government web resources and services.